Location: Cisewo
(53.3833°N, 14.9000°E)
Time: 12:55:48
(UTC+00:00)

USA 281 - Pass Details

Date: 18 April 2021
Orbit: 1078 x 1081 km, 106.0° (Epoch: 14 May)

Event Time Altitude Azimuth Distance (km) Brightness Sun altitude
Exits shadow 21:46:21 22° 102° (ESE) 2,158 4.5 -23.6°
Maximum altitude 21:50:05 42° 46° (NE) 1,507 4.1 -23.8°
Drops below altitude 10° 21:56:10 10° 339° (NNW) 2,932 6.6 -24.1°
Sets 21:58:49 0° 333° (NNW) 3,892 7.5 -24.2°
